Wind_Speed
42 43 42 38 37 39 40 39 39 40 40 40 40 40 40 39 38 37 39 40 40 41 40 40 40 40 39 39 38 38 39 39 39 40 40 39 37 36 35 34 34 34 35 36 36 36 35 35 35 35 35 36 37 39 40 40 40 40 40 41 41 41 41 41 41 40 39 39 39 39 39 39 39 40 42 43 44 45 45 46 46 47 48 49 50 51
42 43 40 37 39 40 40 39 39 39 40 41 41 41 41 40 39 39 40 41 42 43 43 43 42 40 40 40 39 39 39 39 39 39 39 38 38 38 37 35 34 34 35 36 36 36 36 35 35 36 36 37 37 38 39 40 40 41 41 42 43 43 44 44 43 43 41 41 41 41 41 40 40 40 41 42 43 44 45 46 47 47 48 49 50 51
43 41 38 38 40 40 40 39 39 39 40 40 41 41 40 39 40 41 40 41 43 43 43 43 42 40 40 39 38 38 38 38 37 37 37 36 36 37 36 36 35 35 35 34 34 34 34 34 33 33 34 35 35 36 37 38 40 41 41 42 43 44 45 45 45 45 44 42 42 42 42 42 41 41 41 42 43 43 44 45 46 47 48 48 49 51
43 38 37 38 39 39 39 38 37 37 38 39 39 39 39 40 41 41 40 41 42 42 42 42 41 40 39 39 38 37 37 37 36 35 35 36 36 35 35 35 35 35 35 35 34 34 33 32 32 32 32 33 33 33 34 35 36 38 39 41 43 45 46 47 47 47 46 45 43 43 43 43 43 43 43 43 43 44 45 46 46 47 48 48 49 50
38 34 36 37 36 37 37 36 36 36 37 37 38 38 39 40 41 41 41 40 40 41 42 42 42 41 39 38 37 37 38 38 37 36 36 36 36 36 35 35 35 35 35 34 34 34 32 31 31 31 31 31 30 30 29 29 31 33 36 39 42 44 46 47 48 48 48 47 46 45 44 44 45 45 45 45 45 45 46 47 48 49 49 50 50 51
34 33 37 37 36 36 36 35 36 36 37 36 37 38 39 40 40 41 42 42 41 42 41 42 43 43 42 40 37 37 38 38 38 38 37 37 37 37 36 36 35 34 34 34 34 33 31 30 30 30 30 30 29 28 27 27 29 31 33 36 40 43 45 47 48 49 49 49 48 47 46 45 46 46 46 47 46 46 47 47 48 49 50 51 52 53
35 36 38 38 38 38 37 37 37 38 37 37 37 38 39 40 40 41 41 42 43 43 43 42 42 44 46 43 40 41 41 39 39 38 38 38 38 38 38 36 35 34 34 33 33 34 33 32 32 31 30 30 29 28 28 28 29 30 32 34 36 40 43 45 47 48 48 48 48 47 46 45 44 44 45 46 46 47 47 47 48 49 50 52 53 54
38 38 38 38 38 38 38 38 38 38 38 38 37 37 38 39 40 41 41 43 43 44 45 42 41 46 50 45 43 45 44 42 41 40 40 40 40 39 39 37 35 34 34 33 34 36 35 35 35 34 32 31 31 31 31 32 33 34 35 36 37 38 41 43 46 47 47 47 46 45 44 43 42 41 42 43 44 44 45 45 47 48 49 51 53 54
38 38 38 37 37 36 37 37 37 38 38 38 37 38 38 38 39 40 41 42 43 45 46 42 40 47 51 47 46 46 45 44 44 43 42 42 42 41 40 39 37 37 37 37 37 39 38 38 39 39 38 37 36 37 38 39 40 40 40 40 40 40 41 43 45 47 48 48 47 46 44 43 41 41 41 42 43 43 44 44 45 46 49 50 52 54
38 38 37 37 36 36 36 36 37 37 38 37 38 38 39 39 39 40 41 41 42 46 45 40 40 45 49 49 47 46 45 45 45 44 44 44 43 43 43 44 42 42 41 41 41 42 42 42 43 44 45 45 45 45 45 45 45 45 44 43 43 42 42 43 45 47 49 49 49 50 49 47 45 44 42 42 43 44 45 46 46 47 49 51 52 54
38 37 37 37 36 37 36 36 36 36 36 36 37 38 38 39 40 40 42 41 42 46 43 39 41 44 48 50 49 47 47 47 46 46 46 45 44 45 46 47 47 46 45 44 43 43 43 45 48 49 50 51 52 52 51 50 49 49 48 47 47 46 45 45 46 48 50 51 52 53 53 52 51 49 47 45 45 46 47 48 49 50 51 53 54 55
39 38 37 37 37 37 36 36 35 35 35 36 37 37 38 39 40 41 42 42 43 46 44 43 45 47 49 50 50 50 49 48 48 47 47 46 47 47 48 49 50 50 49 47 46 46 47 50 53 55 55 56 57 57 57 55 54 53 52 51 51 50 49 48 48 50 51 53 54 56 57 57 56 55 54 53 53 53 52 51 51 52 54 56 57 58
40 40 39 38 38 37 36 36 35 36 38 38 38 38 39 41 42 44 44 44 46 47 46 48 49 51 52 51 50 50 49 49 49 48 48 49 49 50 51 52 53 53 53 51 51 53 54 56 57 59 59 60 60 60 61 60 59 57 56 54 53 52 52 51 51 53 54 55 57 59 60 61 61 60 60 61 61 61 61 59 55 53 54 57 59 61
42 41 40 39 39 38 38 37 37 39 40 40 39 40 42 43 44 46 47 48 49 49 49 50 52 53 53 51 51 50 49 50 50 50 51 51 52 54 55 55 56 56 56 56 56 57 58 59 60 61 61 61 61 61 61 62 61 60 58 57 56 55 54 54 54 56 57 59 60 62 63 65 65 65 64 65 66 66 67 66 62 59 58 58 60 62
44 43 42 40 40 40 39 39 40 41 42 43 43 44 45 44 45 47 49 51 51 50 50 52 54 54 53 51 51 51 51 52 52 52 54 54 56 57 57 57 57 57 57 57 58 58 59 60 61 61 62 61 60 60 59 60 60 59 58 57 56 56 56 56 57 58 60 62 63 65 66 67 68 68 68 68 69 70 71 72 71 68 65 64 64 64
47 47 45 43 41 41 41 42 43 44 45 46 46 46 46 45 46 48 50 51 51 52 52 53 55 54 52 51 52 53 54 54 55 56 56 57 57 57 57 56 56 56 57 57 58 58 59 60 60 61 61 60 59 59 58 58 57 57 57 56 55 55 55 56 58 60 62 64 66 67 68 69 69 70 71 70 70 71 73 75 75 74 72 70 70 70
49 49 47 44 42 42 43 44 45 45 46 47 46 46 46 47 47 50 51 51 52 54 54 52 54 55 53 52 52 53 55 55 56 56 56 56 56 55 56 56 56 56 57 57 58 58 59 59 59 59 59 59 58 58 57 57 57 56 56 56 55 55 55 56 57 59 62 65 68 70 71 72 72 73 73 74 74 74 74 75 74 72 70 70 71 72
48 48 47 46 45 45 45 45 45 45 46 46 46 46 46 48 50 51 53 53 54 57 56 53 53 54 54 54 52 52 53 53 54 55 55 55 55 56 56 56 57 57 57 58 58 58 59 58 58 59 59 59 59 58 58 57 56 56 55 54 54 54 55 56 57 58 61 64 68 71 73 75 75 76 76 77 77 77 78 79 78 76 74 73 73 73
47 48 49 49 48 47 46 45 45 45 45 45 47 47 48 50 51 52 54 55 56 58 58 54 52 53 54 53 52 52 52 52 53 54 54 54 55 56 57 58 59 59 58 58 57 57 57 57 58 59 60 60 59 58 57 56 56 55 55 54 54 56 57 58 58 59 61 63 66 69 73 75 78 79 80 80 80 80 80 81 81 81 80 79 79 79
48 49 50 50 49 47 47 47 45 44 45 47 49 50 50 51 53 54 55 56 57 59 60 57 55 53 52 53 53 53 52 52 53 55 55 56 56 57 58 58 58 58 58 57 58 58 58 59 60 61 61 61 60 58 57 57 56 56 57 58 59 60 62 63 62 62 62 63 65 67 69 72 75 77 78 80 81 83 84 83 83 84 84 84 82 82
50 51 52 51 50 49 47 46 45 45 48 50 50 51 52 53 55 56 57 57 58 60 60 60 58 54 51 53 54 54 53 53 54 55 55 55 56 56 57 57 57 57 58 58 59 59 60 62 63 63 62 62 62 61 60 60 60 60 61 62 64 64 65 66 66 65 65 65 66 68 69 71 71 72 73 75 77 79 81 82 82 82 83 83 82 81
52 52 51 52 52 50 48 47 47 48 50 51 52 53 55 56 57 58 59 57 58 60 61 61 62 57 52 53 55 54 53 54 53 52 52 52 53 55 56 56 57 58 59 60 61 63 64 64 65 65 65 64 64 63 62 61 62 63 64 65 67 67 67 67 67 67 68 68 69 70 71 72 72 72 72 72 73 75 76 77 77 79 80 81 82 82
50 50 50 51 50 49 49 50 51 51 52 53 55 55 56 58 57 59 60 58 58 61 61 62 63 59 53 51 53 53 52 52 50 49 50 52 53 55 56 57 59 60 60 61 61 62 62 62 62 63 64 65 65 65 64 63 64 65 66 67 69 70 71 71 71 72 73 74 75 75 76 76 76 76 76 76 77 78 79 80 80 81 82 83 85 86
51 51 52 51 50 50 52 54 54 54 54 55 56 56 57 57 57 58 59 59 60 61 60 61 63 60 54 51 51 51 51 50 50 51 52 53 55 56 57 58 58 59 59 59 58 58 57 57 57 59 61 63 64 64 65 66 67 69 70 71 72 74 76 77 79 80 82 83 83 83 83 83 83 83 83 84 84 85 87 88 88 89 89 90 91 92
53 54 55 54 54 54 54 55 56 55 54 56 57 56 57 57 57 58 59 60 62 62 59 60 62 59 54 51 50 51 51 50 51 52 52 52 53 55 57 58 58 59 60 61 61 62 62 63 64 65 67 68 68 69 70 71 73 74 76 77 78 79 81 82 84 85 87 88 89 89 90 90 90 91 91 92 92 93 94 95 96 97 97 98 99 98
54 55 56 56 57 57 56 56 57 56 56 58 58 57 57 57 58 59 60 61 64 62 59 60 61 57 53 53 54 53 52 51 51 51 51 52 53 55 57 59 61 62 63 65 66 68 69 70 72 72 74 75 76 76 77 78 79 80 81 83 84 85 86 86 87 89 90 92 93 94 95 95 96 96 97 97 98 98 98 98 98 98 98 99 100 100
56 56 56 57 58 58 58 58 59 59 58 59 59 58 57 58 58 59 62 64 63 63 62 60 60 58 55 55 57 56 54 54 55 55 56 58 59 60 61 63 65 65 67 68 70 71 73 74 76 77 78 79 80 81 82 82 83 84 85 86 87 88 88 89 90 91 93 94 95 96 96 97 98 98 99 99 100 100 100 100 100 99 99 99 99 99
57 58 57 58 59 59 59 60 61 61 60 60 59 58 57 58 59 61 63 63 61 63 64 60 58 60 57 55 56 57 57 58 59 60 62 63 63 63 64 66 67 68 69 70 72 73 74 75 77 78 79 80 81 81 82 83 83 84 85 86 87 87 88 89 90 91 92 93 94 95 96 96 97 98 99 99 100 100 100 100 101 101 101 101 101 101
58 59 59 59 60 60 61 61 62 62 62 62 60 59 57 58 60 62 63 61 61 64 65 60 58 60 59 56 57 59 60 61 62 63 64 64 64 65 66 67 68 69 70 71 72 73 74 76 77 78 79 79 80 81 81 82 83 84 85 86 87 87 88 89 90 91 92 92 93 94 95 96 97 98 98 99 100 100 101 101 102 102 103 103 104 104
60 61 60 61 62 61 61 62 62 63 64 63 60 60 59 60 62 62 61 60 61 63 62 60 60 61 60 59 59 60 61 63 63 63 63 63 64 65 66 67 68 69 70 70 72 73 74 75 77 78 78 79 79 80 81 82 83 84 85 86 87 88 89 89 90 91 92 93 94 95 95 97 98 99 100 101 101 102 102 103 103 104 104 105 105 106
62 62 62 62 62 62 62 61 62 63 64 63 61 61 61 62 61 59 59 60 61 62 61 60 63 63 59 57 59 60 62 63 62 62 62 63 64 66 67 68 68 69 71 71 72 73 74 75 76 77 78 78 79 80 81 82 83 84 85 87 88 89 90 91 92 93 94 94 95 96 97 98 99 99 100 100 100 101 101 101 101 102 102 103 104 105
62 63 62 62 62 62 61 60 61 62 63 64 64 62 60 59 58 57 58 60 60 62 62 63 64 63 59 58 61 62 62 62 62 62 63 64 66 67 68 69 70 71 72 72 73 74 74 75 76 77 77 78 80 81 82 84 85 86 87 88 89 90 91 92 93 93 94 94 95 95 95 95 95 96 96 95 95 95 95 95 95 95 95 96 97 98
62 62 61 61 62 61 60 60 60 61 65 66 64 59 55 55 56 57 58 58 59 61 63 64 64 62 60 62 63 62 62 63 63 64 65 66 67 68 69 69 70 71 72 72 73 74 75 76 77 78 79 80 81 83 84 85 86 87 88 88 89 90 90 90 90 90 90 89 88 88 87 87 87 87 87 87 86 86 86 86 86 86 87 87 88 88
60 60 60 60 61 61 60 60 60 64 68 66 58 53 53 55 57 58 58 57 58 61 63 64 64 63 64 64 63 63 63 64 65 65 66 67 68 69 70 70 71 72 73 73 74 75 76 77 79 80 81 82 83 84 84 85 86 86 86 86 86 86 85 84 83 82 81 80 79 78 78 77 77 77 78 78 78 78 79 79 80 80 81 82 82 83
59 59 59 60 61 61 60 60 63 67 66 60 54 54 55 56 57 58 59 58 58 61 63 64 64 64 64 64 63 63 64 65 66 66 67 68 69 70 71 72 73 73 74 75 75 76 77 79 80 81 81 82 82 83 83 83 83 82 82 81 81 79 78 77 75 73 72 71 71 71 71 71 72 72 73 73 74 75 76 77 77 78 79 79 80 80
59 59 59 60 61 61 61 61 64 66 62 56 56 57 56 57 58 60 61 59 58 61 63 63 63 63 63 64 64 65 66 67 68 68 69 70 70 71 72 73 73 74 75 76 76 77 78 79 79 80 81 81 81 81 80 79 78 77 76 75 74 72 71 69 68 67 67 67 67 68 69 70 70 71 72 73 74 75 75 76 76 76 77 77 76 77
59 60 59 60 61 61 61 62 64 65 62 57 56 56 56 58 59 62 63 60 56 59 63 62 62 63 63 65 66 66 67 68 69 70 71 71 72 72 73 73 74 75 75 76 77 77 78 78 78 78 78 78 77 76 75 73 71 70 69 68 67 65 65 64 64 64 64 65 67 68 69 70 71 72 73 74 74 74 74 74 74 74 74 73 72 72
58 59 58 59 60 60 61 63 63 66 64 57 53 55 57 59 60 61 63 61 56 57 62 63 62 64 64 65 66 67 68 70 70 71 72 73 73 74 74 74 75 75 76 76 76 75 75 74 74 73 72 71 70 68 67 66 65 64 63 63 62 62 61 61 62 63 64 65 67 69 70 72 72 73 73 74 74 73 73 72 72 71 71 71 71 71
57 57 57 58 60 59 61 63 64 66 64 58 56 57 58 59 60 61 64 62 57 57 62 63 64 65 65 66 67 68 70 72 72 72 74 74 74 74 75 75 75 75 75 74 72 71 70 68 67 66 65 64 63 62 61 61 61 61 61 61 60 60 60 60 61 63 65 67 69 70 71 72 73 73 73 73 72 71 71 70 70 70 70 71 72 72
56 57 57 58 59 59 60 63 65 65 63 59 59 59 58 60 61 62 64 63 59 59 63 64 65 66 67 69 70 71 72 73 73 73 75 75 75 75 75 75 74 74 71 69 67 65 64 62 61 60 59 59 59 59 59 59 59 59 59 59 59 59 59 61 62 64 66 68 69 70 71 72 73 73 72 71 70 69 69 69 69 70 70 71 71 71
56 57 58 58 59 59 61 64 66 65 62 60 61 60 59 62 64 63 62 62 61 62 64 66 67 68 69 71 72 72 72 73 73 74 75 75 75 75 74 73 72 69 67 64 62 59 58 57 56 56 56 56 57 57 57 57 57 57 58 58 58 59 60 62 64 66 67 68 69 71 72 72 72 71 70 69 68 68 68 69 69 69 69 69 68 68
56 58 59 59 60 61 62 64 67 66 61 59 61 61 61 64 65 63 62 62 64 66 67 67 69 70 71 72 73 73 73 73 74 75 74 74 74 73 72 70 67 64 61 58 56 54 53 53 53 53 54 54 55 56 56 56 56 57 58 58 59 60 62 63 65 66 67 69 70 71 71 71 70 69 68 67 67 67 67 68 68 67 67 66 65 63
57 58 60 60 61 62 63 65 68 67 62 60 63 64 65 66 65 64 65 66 67 68 68 69 70 71 72 73 73 73 73 72 73 73 73 72 71 70 68 65 61 57 54 52 51 50 50 50 51 52 53 54 55 55 55 56 56 57 58 60 60 62 63 64 65 66 68 69 70 70 70 69 68 67 67 67 67 67 67 66 65 64 63 61 60 57
59 59 59 60 62 64 66 67 68 67 65 65 67 67 67 68 67 66 67 68 68 68 69 70 71 72 73 73 73 73 72 72 71 70 69 68 67 64 62 58 54 52 49 48 48 48 49 50 51 52 53 54 54 55 56 56 57 58 60 60 61 62 63 64 66 67 68 69 70 69 68 67 67 67 67 67 67 66 64 63 61 59 57 55 54 51
59 58 59 61 64 67 68 69 69 68 67 69 69 68 67 67 67 67 68 69 69 70 71 72 73 73 73 74 74 73 72 70 68 66 64 63 61 58 55 52 49 47 45 46 47 48 49 50 51 52 53 54 55 56 57 58 59 59 60 61 61 62 64 65 66 67 69 69 68 67 67 66 67 67 67 67 66 63 61 59 56 52 49 49 49 47
59 59 61 64 66 68 70 70 69 68 68 68 68 67 66 66 66 67 68 69 70 71 72 73 73 73 73 73 72 71 69 66 63 60 59 57 55 53 50 47 45 44 44 46 47 49 50 51 52 53 54 55 56 57 58 59 60 60 61 61 62 63 64 65 67 68 68 67 67 67 66 66 66 66 66 65 63 60 58 54 49 45 44 45 45 44
59 60 63 66 67 70 71 70 68 67 67 67 66 66 66 66 67 67 68 69 70 71 72 72 72 71 70 68 67 65 62 60 58 56 54 53 51 49 47 45 44 44 45 47 48 50 51 52 53 54 55 56 57 58 59 60 61 61 62 62 63 64 65 66 67 67 67 66 66 66 66 65 65 64 64 62 59 56 52 47 43 41 42 43 43 41
60 61 64 68 69 70 70 68 66 66 66 65 65 65 65 65 66 67 69 70 71 71 70 69 67 65 63 61 59 58 56 55 54 52 51 50 49 47 45 44 44 44 46 48 49 50 52 53 54 56 57 58 59 59 60 61 61 62 62 63 64 65 66 66 66 66 66 66 65 65 64 63 63 62 61 58 55 50 45 41 40 40 41 42 41 39
62 64 66 68 70 70 69 65 63 63 64 63 63 63 63 63 65 67 68 68 68 67 65 63 60 57 56 54 53 52 51 50 49 49 49 48 47 46 45 44 45 45 47 48 50 52 53 54 56 57 58 59 59 60 61 61 62 63 63 64 65 66 66 66 65 65 65 64 63 62 62 61 61 60 58 55 50 44 39 38 40 40 40 40 41 38
62 64 65 69 70 69 65 61 60 61 63 62 61 62 63 65 66 67 66 64 62 60 57 55 53 52 50 48 47 47 47 47 46 46 45 44 44 44 44 45 46 46 47 49 51 53 54 55 56 57 58 59 59 60 60 61 63 63 64 64 65 65 65 65 64 63 62 61 61 60 59 59 59 58 55 51 43 37 35 38 41 41 39 39 39 38
62 63 65 67 66 63 60 58 58 60 62 61 61 63 64 64 63 63 61 58 56 53 51 50 48 46 44 43 43 44 44 44 43 43 42 42 43 44 45 46 47 48 49 51 52 54 55 56 57 57 58 59 59 60 61 62 63 64 64 64 65 64 64 63 61 60 60 59 59 59 59 59 58 55 51 45 38 33 33 35 38 40 40 39 38 38
Wind_Direction
278 279 280 284 284 281 280 281 282 283 284 285 285 286 288 290 293 293 292 293 294 294 294 293 292 294 295 295 297 299 299 297 297 296 296 297 297 296 294 294 294 294 293 292 292 291 290 289 287 285 283 280 279 278 278 278 278 278 277 276 275 274 272 270 268 265 263 263 262 261 260 260 260 261 262 263 263 264 264 263 262 261 260 260 259 259
279 280 283 285 283 280 280 281 281 282 283 284 286 287 289 292 293 292 292 293 294 293 294 293 292 294 295 295 296 297 296 294 293 292 293 294 294 294 294 294 293 291 290 289 289 289 289 288 287 286 285 284 283 282 281 280 279 278 277 276 275 274 273 271 269 266 263 261 260 260 260 259 258 259 260 262 263 263 264 264 265 264 263 262 261 260
278 280 284 283 280 281 281 281 281 282 283 285 286 288 290 291 290 289 290 291 290 289 289 289 289 291 292 292 292 292 291 290 290 290 290 289 289 289 291 291 291 290 289 288 287 286 285 285 284 284 284 283 283 282 282 281 280 278 277 276 275 274 273 272 270 269 266 262 260 260 260 261 260 259 259 260 260 261 262 263 264 265 265 265 263 262
277 280 280 278 278 280 280 281 282 282 283 284 285 287 288 288 287 287 288 287 287 287 287 287 288 289 290 290 291 291 290 290 290 289 287 286 286 287 288 288 288 288 288 288 286 285 284 284 283 281 280 279 279 279 279 279 278 276 275 274 274 274 274 273 272 270 269 266 263 261 260 261 262 262 261 261 261 261 261 262 262 263 263 264 263 262
277 278 276 275 276 277 279 281 282 282 282 283 285 286 286 286 286 287 287 286 285 285 286 288 289 289 289 289 290 290 291 292 292 290 289 289 289 290 290 289 289 289 289 289 288 287 287 286 284 282 281 281 280 279 278 275 273 272 272 271 270 271 272 274 274 273 271 269 266 264 262 261 261 262 262 263 263 263 263 263 263 263 263 263 262 261
276 276 275 277 277 278 279 280 281 281 282 283 283 284 284 285 285 285 285 286 285 284 286 287 289 292 292 292 293 293 293 294 294 293 293 294 295 296 296 295 295 295 295 294 293 292 290 288 286 286 286 286 285 283 278 272 268 268 270 270 270 270 271 272 274 274 274 272 269 267 265 263 262 261 261 261 262 264 265 265 265 265 265 264 264 263
275 275 276 277 279 280 281 281 281 281 282 281 280 281 282 283 283 283 284 285 286 287 288 288 291 294 295 296 298 297 296 297 297 297 298 300 301 301 300 300 300 299 298 296 294 293 292 291 290 289 289 289 288 287 284 280 276 274 274 274 272 271 272 273 274 275 274 273 271 268 266 263 262 261 260 259 260 262 264 266 267 267 267 266 265 265
274 274 275 276 277 279 280 280 280 281 282 281 279 280 280 280 280 281 282 283 285 287 288 290 293 294 294 297 298 297 299 301 301 301 302 302 302 301 301 300 300 298 297 296 293 293 294 293 292 291 290 290 290 290 290 289 288 286 284 282 279 276 274 274 274 275 275 274 271 268 264 262 261 260 259 258 257 258 261 264 267 269 269 268 267 266
273 273 274 275 276 277 277 278 279 280 281 280 280 279 278 277 277 278 279 281 283 286 288 292 293 292 293 296 297 297 301 302 302 304 304 303 301 300 299 298 297 296 296 295 294 294 294 293 292 292 292 291 291 291 291 290 290 288 286 284 282 279 276 275 273 273 275 275 272 267 263 260 259 258 258 259 258 258 258 260 264 267 269 269 269 268
272 273 274 275 276 276 276 278 279 279 279 280 279 278 278 278 278 279 280 282 284 286 291 294 291 291 294 296 297 299 301 302 303 303 302 300 300 299 298 297 297 296 295 294 293 292 291 290 290 291 292 292 291 290 289 288 287 285 283 280 278 274 272 272 271 270 271 273 271 268 264 261 259 257 256 258 259 259 259 260 261 263 266 267 268 269
272 273 274 276 277 278 280 280 279 279 279 280 279 278 279 280 281 282 283 285 286 289 294 293 291 292 294 295 297 299 300 301 301 299 297 297 297 296 297 297 297 297 296 294 293 291 289 288 289 290 291 292 291 290 288 287 285 283 281 278 276 273 269 267 267 266 267 268 268 267 265 263 261 260 259 259 260 261 261 261 261 262 263 264 266 267
274 275 277 278 280 282 283 283 283 283 283 282 281 281 281 282 283 284 285 288 289 291 292 291 290 292 292 293 295 296 298 298 296 295 295 295 295 296 296 296 295 294 294 293 291 289 288 288 289 290 290 290 290 290 289 288 285 283 281 278 276 273 270 267 264 264 264 264 265 265 264 263 262 261 260 260 261 262 262 261 260 260 261 262 263 264
275 277 280 282 284 285 285 287 287 286 285 284 284 284 283 284 285 285 288 289 289 289 289 289 289 289 289 291 293 293 294 293 292 292 293 293 294 294 293 292 291 291 290 290 289 288 288 287 286 286 287 287 287 287 287 287 286 284 281 279 276 272 270 266 263 262 262 262 262 262 262 262 261 260 260 262 263 264 264 263 261 259 260 261 261 261
276 278 281 283 286 287 288 288 287 285 284 283 283 283 283 284 286 287 289 288 286 287 287 287 286 286 288 290 290 290 289 288 289 289 289 289 289 288 287 286 286 286 286 285 285 284 284 284 284 284 284 284 284 283 283 284 284 283 281 280 277 274 271 267 263 261 261 260 260 260 260 261 261 261 261 263 265 267 268 268 266 264 262 262 261 261
277 278 281 283 285 287 287 285 283 282 282 282 281 281 282 284 286 286 285 284 284 284 285 285 284 285 288 289 288 288 286 286 286 286 285 285 284 283 283 283 283 282 282 281 281 280 281 281 282 282 282 282 282 282 281 281 281 281 281 279 278 276 273 270 265 261 259 259 258 259 260 260 261 262 262 263 265 267 268 270 271 270 267 264 263 263
278 278 280 282 283 283 282 280 279 280 279 278 278 279 281 283 282 281 281 281 282 282 282 283 284 285 287 286 286 285 284 285 285 284 284 283 282 282 281 281 281 280 279 279 279 279 279 279 280 281 281 281 281 281 281 281 280 280 279 279 277 276 274 272 268 264 261 259 258 259 260 261 261 262 263 264 265 265 266 268 269 270 270 269 268 267
277 278 279 280 279 278 277 276 276 276 275 275 276 277 279 279 278 278 279 279 279 278 280 282 282 283 284 284 284 284 284 284 284 283 282 281 281 280 279 279 279 278 278 278 279 279 279 279 279 279 280 280 280 280 280 279 278 278 277 277 277 277 275 272 269 266 263 261 259 259 260 261 262 262 263 263 264 264 264 266 267 269 269 270 271 271
276 277 278 278 277 276 275 275 275 273 272 273 274 275 275 275 276 278 278 279 279 278 279 281 281 282 283 283 284 283 282 282 281 281 280 279 279 279 279 279 278 278 278 278 278 278 278 278 278 278 279 279 279 279 279 278 277 276 276 276 276 275 274 272 269 265 262 260 259 258 258 259 261 261 262 262 262 262 262 264 266 268 267 267 267 268
276 277 278 279 278 277 277 276 274 273 272 272 273 273 273 275 277 278 279 280 280 279 280 281 281 282 283 283 283 281 279 278 278 277 276 276 276 277 278 278 278 279 279 278 278 278 277 277 277 278 278 279 279 279 278 277 277 276 275 274 273 272 271 269 268 266 263 260 259 258 257 257 258 259 260 261 262 263 264 264 265 267 268 268 268 268
276 277 278 279 279 278 278 277 277 275 273 272 272 273 275 277 279 280 279 280 280 279 280 281 281 282 283 282 280 278 276 275 273 273 274 275 276 276 276 276 276 276 277 277 277 276 276 276 277 277 277 276 276 275 274 273 272 271 271 270 269 267 267 266 266 266 264 262 261 260 259 259 259 259 260 260 260 262 263 264 265 266 267 269 270 270
277 278 278 279 279 278 278 278 277 274 271 270 272 274 277 279 280 280 279 279 280 280 280 280 279 281 283 280 278 276 275 273 272 272 274 275 275 274 274 274 274 274 275 275 274 274 274 275 275 275 275 274 274 272 271 269 268 267 267 267 266 264 263 262 262 262 261 260 259 259 259 260 260 260 260 261 261 261 262 263 264 265 266 267 269 269
280 280 280 280 280 280 279 277 275 272 270 270 272 275 277 279 279 279 279 279 280 279 279 279 277 279 284 281 278 276 275 274 274 274 274 273 272 271 271 272 273 273 274 273 273 272 272 273 274 274 274 274 273 273 272 270 269 267 266 265 264 263 262 260 259 259 259 259 260 261 261 262 264 264 264 264 264 264 265 265 266 266 267 267 268 269
280 279 279 279 280 279 276 275 274 272 271 272 273 275 277 277 277 278 278 278 277 276 277 276 275 280 284 281 277 277 277 276 275 274 273 271 270 270 271 272 272 272 272 272 272 272 273 274 274 274 274 274 274 273 273 271 269 266 265 264 263 263 263 263 263 263 264 265 267 268 268 269 270 270 270 270 269 269 270 271 271 271 270 270 271 271
277 276 276 277 277 275 273 272 272 272 273 274 274 275 274 275 276 275 275 276 274 273 275 274 274 279 283 279 277 277 276 275 274 273 272 271 270 270 271 272 271 270 270 270 270 270 270 270 270 270 271 271 271 271 271 269 267 266 265 265 265 266 267 269 270 270 271 271 272 273 274 274 274 274 274 274 274 274 274 275 275 275 274 273 272 273
273 273 274 276 275 274 273 273 272 273 274 273 272 273 273 274 274 274 275 275 274 274 274 272 274 279 282 280 278 276 274 273 272 272 272 272 271 271 271 270 270 270 270 270 270 270 269 269 269 269 269 270 270 270 270 270 270 270 269 270 270 271 271 272 272 273 274 274 275 276 276 277 277 277 277 277 277 277 276 276 276 276 276 275 275 274
271 271 272 273 274 274 275 274 273 273 272 272 272 273 274 275 276 276 276 274 273 274 273 273 277 280 281 280 279 277 275 274 273 272 271 270 270 270 270 270 270 270 271 271 271 271 270 270 271 271 272 272 273 273 274 274 274 274 274 274 274 274 274 273 273 273 274 275 275 276 277 278 278 278 278 278 278 278 277 277 277 277 277 276 276 276
268 269 270 271 272 273 274 272 271 271 271 271 272 273 275 276 276 277 275 273 273 274 274 277 281 279 278 279 279 277 276 275 273 272 271 270 270 270 271 272 273 273 274 273 272 272 272 272 273 273 273 274 275 275 276 276 276 276 276 276 276 276 276 276 275 275 275 276 277 277 278 278 278 279 278 278 278 278 278 278 277 277 277 276 276 275
267 268 269 269 270 271 271 270 270 272 272 272 272 273 274 275 275 275 273 272 274 274 276 279 279 276 276 278 278 277 277 275 274 274 273 273 273 274 274 275 275 275 275 275 275 275 275 275 275 276 276 276 277 277 278 278 278 278 278 278 278 278 278 278 277 277 277 277 278 278 278 278 278 278 278 278 278 278 278 278 277 277 277 276 276 275
267 268 269 268 268 269 269 269 270 272 272 272 273 274 275 275 273 272 271 274 276 275 277 279 277 275 276 277 275 276 277 276 275 275 275 277 277 278 277 277 277 277 277 277 277 277 278 278 278 278 279 279 279 279 280 280 280 279 279 279 279 279 279 278 278 278 277 277 277 277 277 278 278 278 278 278 278 278 278 277 277 277 277 277 276 276
267 268 268 268 268 268 268 268 270 270 270 271 272 274 275 273 271 271 274 276 276 275 277 278 276 275 276 277 277 276 276 277 277 277 278 279 280 280 279 279 279 279 279 279 278 278 279 279 279 279 279 280 280 280 280 280 280 280 280 280 279 279 279 279 279 278 278 278 278 278 278 278 278 278 278 278 278 278 277 277 277 276 276 276 276 275
268 268 268 268 267 267 268 268 269 269 269 270 272 274 274 273 272 274 276 276 275 275 277 277 276 276 277 278 278 276 276 277 279 279 280 279 279 279 279 279 279 279 279 279 279 279 279 279 279 280 280 280 280 280 280 280 280 280 280 280 280 280 280 280 280 279 279 279 279 278 278 278 278 278 278 278 278 278 278 277 277 277 276 276 275 275
269 269 269 269 267 267 268 267 267 268 268 268 272 276 276 274 275 275 274 273 274 276 277 276 277 278 279 277 276 276 277 278 278 279 279 279 278 278 278 279 279 279 280 280 280 281 281 281 281 281 281 281 281 281 281 281 281 281 281 281 281 281 281 281 281 281 280 280 280 280 280 280 280 280 280 280 280 280 280 280 279 279 279 278 278 277
269 269 269 268 268 268 268 267 267 267 266 269 276 279 276 274 274 272 271 273 275 276 276 276 277 279 278 277 276 277 278 278 278 279 279 279 279 280 280 280 280 281 281 281 282 282 282 282 282 282 282 282 282 282 282 282 282 282 282 282 282 282 282 282 282 282 283 283 283 283 283 283 283 283 283 283 283 283 283 283 283 282 282 281 281 280
269 269 268 268 268 268 267 267 267 264 266 273 279 277 272 271 271 271 272 272 273 274 275 277 278 278 278 278 279 280 280 280 280 280 280 280 281 281 282 282 282 282 282 283 283 283 283 283 283 283 283 283 283 283 282 283 283 283 283 283 283 283 283 283 284 284 285 286 286 286 286 286 286 286 286 286 286 286 286 286 285 285 284 284 283 283
269 269 268 268 268 268 268 268 266 266 270 277 276 271 271 272 272 273 273 272 272 274 275 277 278 279 279 280 281 281 281 281 281 281 282 282 282 282 283 283 283 284 284 285 285 285 284 284 284 284 284 284 283 283 283 283 283 284 284 284 284 284 285 285 286 287 287 288 288 288 289 289 289 289 289 289 289 289 288 288 288 287 287 286 286 285
268 268 268 268 268 268 268 268 268 270 273 273 272 273 274 274 274 273 272 271 273 275 276 276 278 279 280 281 282 282 283 283 284 284 284 284 284 284 284 285 285 286 286 286 285 285 285 285 284 284 284 284 284 283 284 284 284 284 284 284 284 285 286 287 288 288 289 289 289 290 290 290 291 291 291 291 291 291 290 290 289 289 288 288 288 287
266 266 267 268 268 269 270 270 271 272 272 272 275 277 276 275 274 274 273 273 274 275 276 277 278 279 281 282 283 284 285 285 286 287 287 286 286 286 286 287 287 286 286 286 285 285 285 285 284 284 284 284 284 284 284 284 283 283 283 284 285 286 287 288 288 289 290 290 291 291 291 292 292 292 293 293 292 292 292 291 291 290 290 289 289 288
266 266 267 268 269 270 271 272 273 274 275 277 278 277 276 276 276 276 276 275 275 275 277 279 280 281 282 283 285 286 286 287 287 288 287 287 287 287 287 287 287 287 287 286 286 286 286 286 285 285 284 284 284 284 284 283 283 283 284 284 285 286 287 288 289 290 290 291 291 292 292 293 293 294 294 294 293 293 292 292 291 291 291 291 290 289
266 267 267 268 269 271 273 275 275 276 278 280 279 277 277 278 277 277 277 277 277 278 278 279 281 282 283 285 286 286 287 288 288 288 288 288 288 288 288 288 288 288 288 288 288 288 287 286 286 285 285 284 284 284 283 283 283 284 284 285 286 287 288 288 289 290 290 291 291 292 292 293 294 295 295 294 294 293 293 292 292 292 292 291 291 291
266 267 267 268 270 272 274 275 275 277 279 280 279 279 278 277 276 276 278 280 281 280 279 281 283 284 285 286 287 287 288 289 289 289 289 289 289 289 288 288 288 288 289 289 289 288 287 286 286 285 285 284 283 283 283 283 283 284 284 285 286 287 288 289 290 290 290 291 291 292 293 294 295 295 295 294 294 294 293 293 292 292 292 292 292 292
266 267 268 269 271 272 273 275 276 277 279 281 281 280 278 277 276 277 280 283 282 281 281 283 284 286 287 287 288 288 289 289 289 289 288 289 289 289 288 288 288 289 289 289 289 288 287 286 285 285 284 283 283 283 283 283 284 285 285 286 287 288 289 289 290 290 291 291 292 294 295 295 296 296 295 295 294 294 294 294 294 294 294 294 294 294
267 268 269 271 272 273 274 276 276 277 279 281 281 280 279 278 279 281 282 282 282 283 284 285 285 287 287 287 288 289 289 288 288 288 287 287 287 287 288 288 289 290 290 289 288 287 286 285 284 284 283 283 283 283 284 284 285 286 286 287 288 288 289 290 290 291 292 293 294 295 296 296 297 296 296 296 295 295 295 296 296 296 296 296 295 295
267 268 270 272 274 275 275 275 277 279 280 280 279 280 281 281 282 283 283 282 283 284 284 285 286 287 287 287 288 288 287 287 287 286 286 286 286 287 288 289 290 290 290 289 287 286 285 284 283 283 283 283 283 284 284 285 286 286 287 288 289 289 290 291 291 292 293 294 295 296 297 297 297 297 297 297 296 297 297 298 298 297 297 296 296 296
268 269 272 274 274 275 275 275 277 279 281 280 280 281 282 282 283 284 284 284 284 284 285 286 287 287 287 287 286 286 286 286 285 285 285 286 286 288 289 290 290 290 289 287 285 284 283 282 282 282 282 283 284 285 285 286 287 287 288 289 290 290 291 292 292 293 294 296 297 297 298 298 298 298 298 297 298 298 299 299 298 298 297 296 297 298
270 272 273 273 273 274 275 276 278 279 280 281 281 282 282 283 285 284 283 284 285 286 286 287 286 286 286 286 285 285 286 285 285 285 286 287 288 289 290 291 290 289 287 284 283 282 281 281 281 282 283 284 285 286 286 287 288 288 289 290 291 292 292 293 294 295 296 297 298 298 298 299 299 299 298 298 299 300 299 298 297 296 295 296 298 300
271 273 273 273 274 275 276 277 278 280 281 282 283 283 283 283 283 283 284 285 286 286 286 286 286 286 286 286 286 286 287 287 287 287 288 289 290 291 291 291 290 288 285 283 283 282 282 282 282 283 284 285 286 287 288 288 289 290 291 292 292 293 294 295 296 297 297 298 298 299 299 299 299 299 299 299 300 300 299 297 295 294 295 298 300 302
272 273 274 274 274 275 276 278 280 282 282 283 283 282 282 282 283 283 284 285 285 285 285 286 286 286 286 286 287 287 287 288 288 289 290 291 291 291 291 290 289 287 285 283 283 283 283 283 284 285 286 286 287 288 288 289 290 291 292 293 293 294 295 296 297 298 298 299 299 299 299 299 299 298 298 299 300 299 297 294 293 294 297 300 302 304
272 272 273 275 276 277 278 280 282 282 281 281 281 281 282 283 284 284 284 284 285 285 285 285 285 285 285 286 286 286 287 287 288 289 290 290 291 291 290 289 287 285 284 284 284 283 284 284 285 286 287 287 288 289 290 291 292 292 293 294 295 296 297 297 298 299 299 299 299 299 299 298 298 298 298 299 299 297 292 289 291 295 299 301 304 306
272 273 275 277 277 277 279 281 282 281 279 279 279 281 283 284 284 283 283 284 284 284 284 283 283 283 284 284 285 285 286 287 288 288 288 289 290 290 289 287 286 284 284 283 283 283 284 285 285 286 287 288 290 290 291 292 292 293 294 295 296 297 297 298 298 299 299 299 299 299 298 298 298 298 298 299 296 291 287 287 292 295 298 302 304 306
273 276 278 278 277 278 280 281 280 279 278 277 278 280 282 283 282 282 282 282 283 283 282 282 282 282 283 284 284 284 285 286 287 287 288 288 288 287 287 286 285 284 283 283 283 283 284 285 286 287 288 289 290 291 291 292 292 293 295 295 296 297 297 298 298 299 299 299 298 298 298 297 297 298 299 297 291 284 283 289 295 297 298 301 304 307
276 278 278 278 279 280 280 280 279 278 278 279 280 281 282 282 282 282 282 282 282 282 282 283 284 285 285 285 284 283 285 287 287 287 288 287 286 286 286 285 284 284 284 284 284 284 285 286 287 288 288 289 290 290 291 291 292 294 295 296 296 297 298 298 298 298 298 298 298 298 297 297 297 298 297 292 284 278 281 288 295 299 302 303 304 306
Height
5817 5815 5816 5819 5820 5817 5815 5815 5815 5814 5813 5812 5812 5811 5811 5811 5812 5812 5810 5809 5808 5807 5808 5808 5807 5808 5808 5807 5807 5806 5805 5804 5803 5801 5799 5799 5798 5798 5797 5797 5796 5796 5795 5795 5795 5795 5794 5794 5794 5794 5794 5793 5792 5791 5790 5789 5788 5788 5788 5787 5787 5787 5786 5785 5785 5785 5784 5783 5783 5783 5783 5783 5783 5783 5783 5783 5783 5782 5782 5782 5782 5782 5782 5781 5781 5782
5812 5811 5813 5815 5813 5811 5811 5811 5811 5810 5809 5808 5807 5807 5807 5807 5807 5807 5806 5805 5804 5803 5803 5803 5803 5803 5803 5802 5803 5802 5800 5800 5800 5798 5797 5796 5795 5793 5792 5792 5792 5792 5791 5791 5790 5790 5790 5790 5790 5789 5789 5788 5787 5787 5786 5785 5784 5783 5782 5782 5781 5781 5781 5780 5779 5779 5779 5779 5778 5778 5777 5777 5777 5777 5777 5777 5777 5777 5777 5777 5776 5776 5776 5776 5775 5775
5806 5807 5810 5809 5807 5806 5806 5806 5806 5806 5805 5804 5803 5802 5803 5803 5802 5802 5802 5801 5800 5800 5799 5799 5799 5799 5798 5798 5799 5798 5797 5796 5795 5795 5794 5793 5792 5790 5790 5789 5788 5788 5787 5787 5787 5786 5786 5786 5786 5785 5785 5784 5783 5783 5782 5780 5779 5779 5778 5777 5776 5775 5775 5775 5774 5774 5774 5774 5774 5773 5772 5772 5771 5771 5771 5770 5770 5770 5771 5771 5771 5771 5771 5770 5770 5770
5802 5805 5805 5803 5802 5802 5801 5801 5802 5801 5801 5800 5799 5799 5799 5799 5798 5798 5798 5798 5796 5795 5794 5794 5795 5795 5794 5794 5794 5793 5792 5791 5791 5791 5790 5788 5788 5787 5786 5785 5785 5784 5783 5782 5782 5782 5782 5781 5781 5780 5780 5779 5779 5778 5778 5777 5776 5775 5774 5772 5771 5770 5770 5769 5769 5769 5768 5768 5768 5768 5768 5767 5767 5766 5765 5765 5765 5764 5764 5764 5764 5765 5765 5764 5764 5764
5799 5801 5799 5798 5798 5798 5797 5797 5797 5797 5796 5796 5796 5795 5795 5794 5794 5793 5793 5793 5792 5791 5790 5789 5788 5789 5790 5789 5790 5788 5787 5786 5785 5784 5784 5783 5782 5782 5781 5780 5780 5779 5778 5777 5776 5775 5775 5775 5775 5774 5773 5773 5773 5773 5773 5772 5772 5771 5770 5768 5767 5766 5765 5764 5763 5763 5763 5763 5762 5762 5762 5762 5762 5761 5760 5760 5759 5759 5759 5759 5758 5758 5758 5758 5758 5757
5796 5796 5794 5793 5794 5793 5793 5793 5792 5792 5792 5792 5792 5791 5791 5790 5790 5789 5788 5787 5787 5786 5786 5785 5783 5782 5782 5782 5784 5783 5781 5781 5779 5777 5777 5776 5776 5775 5774 5773 5773 5772 5771 5770 5769 5769 5769 5768 5768 5768 5767 5767 5767 5766 5767 5767 5767 5766 5765 5764 5763 5762 5761 5760 5758 5758 5757 5757 5756 5756 5756 5756 5756 5755 5755 5754 5753 5753 5753 5753 5753 5753 5753 5752 5752 5752
5791 5791 5790 5790 5789 5789 5789 5788 5788 5787 5788 5788 5788 5787 5786 5786 5785 5784 5783 5782 5780 5780 5780 5780 5778 5777 5775 5775 5776 5775 5774 5774 5773 5772 5771 5770 5769 5768 5767 5766 5766 5765 5765 5764 5763 5763 5763 5762 5762 5762 5761 5761 5761 5761 5761 5761 5761 5761 5761 5760 5759 5758 5757 5755 5754 5753 5752 5751 5750 5750 5749 5749 5749 5749 5748 5748 5748 5747 5747 5746 5746 5747 5746 5746 5746 5746
5786 5785 5785 5785 5785 5785 5784 5784 5783 5783 5783 5783 5783 5782 5782 5781 5780 5779 5778 5776 5775 5775 5774 5774 5774 5771 5770 5771 5768 5767 5768 5767 5767 5766 5765 5764 5763 5761 5761 5761 5760 5760 5759 5759 5758 5757 5756 5756 5755 5756 5756 5755 5755 5755 5755 5755 5755 5755 5755 5755 5754 5753 5752 5751 5749 5748 5747 5746 5745 5744 5743 5742 5742 5742 5742 5742 5741 5741 5740 5740 5739 5740 5740 5740 5740 5740
5780 5780 5780 5780 5780 5780 5779 5779 5778 5778 5777 5777 5777 5776 5776 5775 5774 5774 5773 5772 5771 5770 5769 5770 5770 5766 5765 5766 5762 5760 5762 5761 5760 5759 5758 5757 5756 5756 5755 5755 5755 5755 5754 5753 5752 5751 5750 5749 5748 5748 5749 5749 5750 5749 5749 5749 5749 5749 5748 5748 5748 5747 5747 5746 5744 5743 5741 5740 5739 5738 5737 5736 5736 5736 5735 5735 5735 5734 5733 5733 5732 5732 5733 5733 5733 5732
5774 5774 5774 5774 5774 5774 5774 5774 5774 5773 5772 5772 5771 5770 5769 5769 5768 5768 5767 5767 5766 5765 5766 5766 5764 5760 5760 5761 5757 5755 5756 5755 5754 5754 5752 5751 5750 5750 5749 5749 5749 5749 5748 5747 5746 5745 5744 5743 5742 5741 5741 5742 5742 5743 5743 5742 5742 5742 5741 5741 5741 5740 5740 5739 5738 5737 5736 5735 5734 5732 5731 5730 5729 5729 5728 5728 5728 5727 5727 5726 5725 5725 5725 5725 5725 5725
5769 5769 5769 5769 5769 5769 5769 5769 5768 5768 5767 5767 5765 5764 5763 5763 5763 5762 5761 5762 5760 5760 5762 5761 5757 5756 5756 5756 5753 5751 5751 5750 5749 5748 5747 5746 5745 5744 5743 5742 5742 5741 5740 5740 5739 5739 5738 5737 5736 5735 5734 5734 5733 5734 5734 5735 5734 5734 5734 5734 5733 5733 5732 5732 5731 5730 5729 5728 5727 5726 5725 5724 5723 5722 5722 5721 5721 5721 5720 5720 5719 5718 5718 5718 5718 5718
5763 5763 5764 5764 5763 5763 5763 5762 5762 5762 5761 5760 5759 5759 5758 5757 5757 5756 5756 5756 5755 5755 5756 5754 5752 5751 5751 5752 5750 5748 5747 5745 5743 5742 5741 5741 5740 5739 5738 5737 5735 5734 5733 5732 5732 5732 5731 5730 5729 5728 5728 5727 5726 5725 5725 5726 5726 5726 5726 5725 5725 5725 5725 5724 5724 5723 5722 5721 5720 5719 5718 5717 5716 5715 5714 5713 5713 5713 5713 5712 5712 5711 5710 5711 5710 5710
5757 5757 5758 5757 5757 5757 5757 5756 5756 5756 5755 5754 5754 5753 5752 5751 5750 5750 5751 5750 5749 5750 5749 5747 5746 5745 5747 5748 5746 5744 5743 5740 5738 5737 5736 5735 5734 5734 5732 5730 5729 5728 5727 5726 5725 5725 5724 5724 5723 5722 5721 5721 5720 5718 5717 5717 5717 5717 5717 5717 5716 5716 5716 5716 5716 5716 5715 5714 5712 5711 5710 5709 5708 5707 5706 5705 5704 5703 5703 5703 5703 5702 5702 5702 5703 5702
5751 5752 5752 5751 5751 5751 5751 5751 5750 5749 5749 5749 5749 5748 5746 5745 5744 5744 5745 5743 5742 5744 5743 5741 5740 5739 5742 5743 5741 5740 5738 5735 5734 5733 5731 5731 5729 5728 5726 5724 5723 5722 5721 5720 5719 5718 5717 5716 5715 5715 5714 5714 5713 5712 5711 5709 5708 5708 5708 5708 5708 5708 5708 5708 5707 5707 5706 5705 5704 5703 5701 5700 5699 5699 5698 5696 5695 5694 5693 5693 5693 5693 5693 5693 5694 5694
5746 5746 5746 5746 5746 5746 5745 5745 5744 5744 5743 5743 5743 5741 5740 5741 5739 5737 5738 5735 5735 5738 5738 5735 5732 5733 5737 5738 5735 5734 5732 5730 5729 5728 5726 5725 5723 5721 5719 5718 5717 5716 5715 5714 5713 5711 5710 5709 5708 5707 5706 5706 5705 5704 5704 5702 5701 5700 5699 5699 5699 5699 5699 5698 5698 5698 5697 5696 5695 5694 5693 5692 5691 5690 5689 5688 5687 5686 5685 5684 5684 5683 5683 5684 5684 5685
5739 5739 5741 5741 5740 5740 5740 5739 5739 5739 5738 5737 5737 5735 5735 5736 5734 5730 5730 5730 5729 5729 5731 5730 5726 5727 5731 5731 5730 5727 5725 5725 5723 5721 5720 5717 5715 5714 5712 5711 5710 5708 5707 5706 5705 5704 5703 5702 5701 5699 5698 5697 5697 5696 5695 5694 5693 5692 5691 5691 5690 5690 5690 5689 5689 5688 5688 5687 5686 5685 5684 5683 5683 5682 5681 5680 5680 5679 5678 5677 5676 5675 5674 5674 5673 5674
5733 5733 5735 5735 5735 5735 5734 5733 5733 5733 5731 5730 5730 5730 5730 5729 5727 5724 5722 5724 5723 5720 5724 5726 5722 5721 5723 5724 5724 5722 5720 5719 5716 5714 5712 5709 5708 5706 5704 5703 5702 5701 5700 5699 5698 5696 5695 5694 5692 5691 5691 5690 5689 5688 5687 5686 5686 5684 5683 5682 5681 5681 5680 5680 5679 5678 5678 5677 5676 5676 5675 5674 5674 5673 5672 5671 5670 5670 5669 5668 5667 5666 5665 5664 5663 5663
5727 5727 5728 5728 5727 5727 5727 5727 5726 5726 5724 5723 5724 5724 5723 5721 5720 5719 5716 5716 5715 5711 5714 5719 5718 5715 5715 5716 5717 5717 5714 5713 5709 5707 5705 5702 5701 5699 5697 5696 5694 5693 5692 5691 5690 5689 5687 5686 5685 5684 5683 5682 5681 5680 5679 5678 5678 5677 5675 5674 5673 5671 5670 5669 5668 5668 5667 5666 5665 5665 5664 5663 5663 5662 5661 5661 5660 5659 5659 5657 5656 5656 5655 5655 5654 5654
5721 5719 5720 5720 5719 5719 5720 5719 5718 5718 5718 5718 5716 5716 5716 5714 5713 5713 5710 5708 5707 5703 5703 5709 5711 5711 5709 5708 5710 5709 5708 5707 5704 5700 5698 5696 5694 5693 5691 5689 5687 5686 5684 5683 5682 5681 5680 5678 5677 5676 5675 5674 5673 5672 5671 5670 5669 5668 5666 5665 5664 5662 5661 5660 5658 5658 5657 5656 5655 5654 5653 5653 5652 5651 5651 5650 5649 5648 5648 5647 5646 5645 5644 5644 5644 5643
5713 5712 5713 5713 5712 5711 5711 5711 5712 5712 5711 5710 5708 5708 5708 5708 5707 5706 5703 5701 5699 5695 5694 5697 5701 5705 5705 5702 5700 5699 5700 5700 5697 5693 5691 5690 5688 5686 5684 5683 5681 5679 5677 5676 5675 5674 5672 5671 5669 5669 5667 5666 5665 5663 5662 5661 5660 5659 5657 5656 5655 5654 5653 5651 5650 5649 5647 5646 5645 5644 5643 5642 5642 5641 5640 5639 5638 5637 5636 5635 5635 5634 5633 5632 5632 5632
5705 5705 5706 5707 5705 5704 5703 5704 5705 5705 5702 5701 5701 5701 5701 5701 5699 5697 5695 5695 5693 5688 5687 5687 5688 5696 5701 5695 5691 5690 5691 5691 5689 5688 5687 5684 5682 5679 5677 5675 5673 5672 5671 5670 5668 5667 5665 5663 5661 5660 5659 5657 5656 5655 5654 5652 5651 5650 5649 5648 5647 5645 5643 5642 5640 5639 5638 5637 5636 5635 5634 5633 5632 5631 5630 5629 5628 5627 5626 5625 5624 5623 5623 5622 5621 5621
5697 5696 5697 5698 5697 5696 5696 5696 5697 5696 5694 5694 5695 5695 5694 5693 5692 5689 5687 5689 5687 5681 5680 5677 5675 5685 5694 5688 5682 5683 5683 5682 5681 5681 5680 5677 5674 5671 5669 5667 5666 5665 5664 5662 5661 5659 5657 5656 5654 5652 5651 5649 5648 5646 5645 5644 5643 5642 5641 5639 5638 5636 5634 5632 5631 5629 5628 5627 5625 5624 5623 5622 5621 5620 5620 5619 5618 5617 5616 5615 5614 5613 5613 5612 5611 5611
5690 5689 5688 5690 5691 5691 5688 5687 5688 5688 5688 5688 5688 5689 5688 5686 5685 5682 5679 5682 5681 5674 5672 5669 5664 5673 5684 5682 5676 5675 5674 5674 5673 5673 5671 5668 5666 5664 5661 5661 5659 5657 5656 5654 5652 5651 5649 5648 5646 5644 5643 5641 5639 5638 5637 5636 5635 5633 5632 5630 5628 5626 5625 5623 5621 5619 5617 5616 5614 5613 5612 5611 5610 5609 5609 5608 5607 5607 5606 5605 5604 5603 5602 5602 5601 5600
5684 5682 5681 5682 5684 5684 5680 5679 5679 5680 5682 5682 5682 5682 5681 5679 5679 5676 5672 5672 5670 5667 5667 5662 5656 5662 5672 5673 5671 5669 5667 5667 5665 5664 5662 5660 5658 5657 5654 5653 5651 5649 5648 5646 5644 5643 5642 5640 5638 5636 5634 5633 5631 5630 5629 5628 5626 5624 5622 5619 5617 5616 5614 5613 5611 5608 5606 5605 5603 5602 5601 5600 5599 5598 5597 5596 5595 5595 5593 5592 5592 5591 5590 5590 5590 5589
5677 5675 5674 5675 5675 5674 5674 5672 5671 5673 5676 5674 5674 5674 5673 5672 5671 5668 5666 5663 5658 5658 5662 5656 5650 5656 5661 5662 5663 5661 5659 5659 5658 5655 5654 5653 5650 5648 5646 5644 5643 5641 5640 5639 5637 5636 5634 5632 5630 5628 5626 5624 5623 5621 5620 5618 5617 5615 5612 5610 5608 5607 5605 5603 5601 5599 5596 5594 5593 5591 5590 5588 5587 5586 5585 5584 5583 5582 5581 5580 5579 5578 5578 5577 5577 5577
5670 5668 5667 5667 5665 5665 5666 5665 5664 5666 5667 5665 5665 5666 5666 5666 5663 5660 5658 5653 5648 5649 5652 5649 5647 5650 5654 5653 5652 5651 5651 5651 5649 5647 5646 5645 5642 5639 5637 5636 5635 5635 5634 5632 5630 5628 5626 5623 5621 5619 5617 5615 5613 5611 5610 5609 5607 5605 5602 5600 5598 5597 5595 5593 5592 5589 5587 5585 5583 5581 5580 5577 5576 5574 5573 5572 5571 5570 5570 5568 5567 5566 5565 5564 5563 5563
5661 5660 5660 5659 5657 5657 5658 5657 5656 5657 5658 5657 5657 5658 5659 5657 5656 5653 5648 5642 5641 5640 5640 5644 5644 5642 5645 5647 5642 5641 5642 5641 5640 5638 5637 5635 5634 5632 5631 5629 5628 5627 5626 5623 5621 5618 5617 5615 5612 5610 5607 5605 5603 5601 5599 5598 5596 5593 5591 5588 5586 5585 5584 5582 5580 5578 5575 5574 5572 5570 5569 5567 5565 5563 5561 5560 5559 5557 5556 5555 5553 5552 5551 5549 5549 5548
5652 5651 5652 5652 5650 5650 5650 5648 5647 5648 5649 5649 5649 5651 5652 5650 5647 5644 5637 5634 5636 5632 5630 5639 5639 5631 5635 5641 5636 5631 5632 5631 5630 5629 5627 5626 5625 5625 5624 5621 5619 5618 5616 5614 5611 5609 5607 5605 5602 5599 5597 5595 5593 5591 5589 5586 5584 5581 5579 5577 5574 5573 5571 5570 5568 5566 5564 5562 5561 5559 5557 5555 5553 5551 5549 5547 5546 5544 5543 5541 5540 5538 5536 5535 5533 5532
5644 5642 5644 5644 5642 5642 5642 5640 5640 5640 5638 5639 5641 5643 5645 5644 5638 5633 5629 5630 5631 5623 5622 5631 5630 5623 5627 5633 5629 5624 5622 5620 5621 5620 5618 5618 5618 5617 5615 5612 5610 5608 5607 5605 5603 5600 5598 5594 5592 5589 5587 5585 5583 5581 5578 5575 5572 5570 5567 5565 5563 5561 5560 5558 5556 5554 5552 5551 5549 5547 5545 5543 5541 5538 5536 5534 5532 5531 5530 5528 5526 5524 5522 5520 5518 5516
5636 5635 5635 5634 5633 5633 5633 5632 5633 5631 5628 5630 5634 5636 5637 5635 5629 5626 5626 5627 5622 5615 5616 5620 5617 5616 5622 5623 5619 5616 5613 5610 5610 5611 5611 5611 5609 5607 5605 5603 5601 5599 5597 5596 5593 5591 5589 5585 5583 5580 5578 5576 5574 5571 5568 5565 5562 5559 5556 5554 5552 5549 5547 5545 5543 5542 5540 5538 5536 5535 5533 5531 5528 5525 5523 5521 5519 5517 5515 5514 5512 5510 5508 5506 5503 5501
5627 5627 5626 5626 5624 5624 5625 5625 5624 5622 5619 5620 5625 5627 5627 5624 5622 5623 5623 5619 5613 5608 5610 5610 5604 5607 5616 5614 5608 5606 5604 5602 5602 5603 5603 5602 5600 5598 5595 5593 5592 5590 5588 5586 5584 5581 5579 5576 5573 5571 5568 5566 5563 5560 5557 5554 5551 5549 5546 5543 5540 5537 5534 5532 5530 5528 5527 5525 5523 5521 5519 5517 5514 5511 5509 5507 5505 5502 5500 5498 5496 5494 5492 5490 5488 5486
5619 5617 5617 5617 5614 5614 5618 5617 5615 5613 5610 5610 5616 5620 5620 5617 5617 5617 5613 5609 5606 5603 5600 5598 5595 5599 5606 5604 5598 5597 5597 5596 5595 5595 5594 5593 5591 5588 5586 5584 5582 5580 5578 5576 5574 5572 5568 5566 5563 5560 5558 5555 5552 5549 5546 5542 5540 5537 5534 5531 5528 5525 5522 5519 5517 5515 5512 5511 5509 5507 5505 5502 5500 5497 5495 5492 5490 5487 5485 5483 5480 5478 5476 5474 5472 5470
5611 5609 5609 5608 5604 5605 5608 5608 5608 5605 5598 5600 5610 5616 5614 5610 5607 5605 5603 5603 5601 5595 5590 5588 5589 5592 5594 5592 5589 5589 5589 5587 5587 5587 5585 5583 5581 5578 5576 5575 5572 5570 5569 5567 5565 5562 5558 5555 5552 5549 5547 5544 5541 5538 5534 5531 5528 5525 5522 5519 5516 5513 5510 5507 5505 5502 5499 5497 5495 5493 5490 5488 5486 5484 5481 5478 5476 5473 5471 5469 5466 5464 5461 5460 5458 5455
5603 5602 5601 5598 5596 5596 5598 5599 5599 5592 5588 5596 5608 5609 5604 5601 5598 5595 5596 5598 5595 5588 5583 5581 5582 5583 5582 5580 5580 5580 5579 5577 5577 5577 5575 5573 5571 5569 5567 5565 5562 5561 5559 5557 5555 5552 5548 5545 5542 5538 5535 5532 5529 5526 5522 5519 5516 5513 5510 5507 5504 5501 5498 5495 5493 5491 5488 5486 5483 5480 5478 5475 5473 5471 5469 5467 5464 5462 5459 5456 5454 5451 5448 5446 5444 5442
5596 5594 5592 5590 5587 5586 5588 5590 5584 5579 5585 5596 5600 5596 5594 5593 5591 5587 5587 5589 5587 5582 5577 5575 5574 5573 5572 5571 5571 5570 5569 5567 5566 5566 5565 5564 5562 5560 5557 5554 5553 5551 5549 5546 5543 5540 5537 5534 5530 5527 5523 5520 5517 5513 5510 5508 5505 5501 5498 5495 5492 5489 5487 5485 5483 5480 5478 5475 5472 5469 5467 5465 5463 5461 5458 5456 5453 5451 5448 5445 5442 5439 5436 5434 5432 5429
5588 5586 5583 5582 5579 5577 5578 5578 5572 5571 5581 5589 5588 5587 5587 5585 5582 5577 5575 5579 5582 5576 5569 5567 5567 5565 5563 5562 5562 5560 5559 5557 5556 5556 5554 5552 5551 5549 5546 5544 5542 5540 5538 5535 5532 5529 5526 5522 5519 5515 5512 5508 5505 5502 5499 5497 5494 5491 5488 5485 5482 5480 5478 5476 5474 5471 5469 5466 5463 5460 5457 5455 5453 5450 5448 5445 5443 5440 5437 5434 5431 5427 5424 5423 5421 5417
5580 5577 5576 5574 5571 5569 5569 5568 5566 5564 5570 5580 5583 5580 5577 5574 5572 5567 5563 5570 5577 5570 5561 5558 5558 5557 5555 5553 5552 5551 5549 5547 5546 5545 5543 5540 5539 5537 5535 5533 5531 5529 5526 5523 5520 5517 5514 5511 5508 5504 5501 5497 5494 5492 5489 5487 5484 5481 5478 5476 5473 5472 5470 5468 5465 5462 5460 5457 5453 5451 5448 5445 5443 5440 5438 5435 5432 5429 5426 5422 5420 5416 5413 5411 5410 5406
5571 5569 5569 5566 5562 5562 5560 5559 5558 5555 5559 5572 5577 5571 5566 5563 5561 5557 5552 5559 5568 5564 5554 5550 5550 5548 5547 5546 5544 5542 5540 5538 5537 5536 5532 5529 5528 5526 5524 5522 5519 5517 5514 5511 5509 5506 5502 5499 5496 5493 5490 5487 5484 5482 5479 5477 5474 5472 5470 5467 5466 5464 5462 5460 5457 5454 5451 5448 5444 5441 5439 5436 5433 5431 5428 5425 5421 5418 5415 5412 5409 5406 5402 5400 5398 5395
5563 5561 5561 5557 5555 5556 5554 5550 5549 5547 5552 5563 5565 5561 5559 5556 5552 5547 5542 5547 5558 5556 5545 5542 5542 5539 5539 5538 5536 5534 5531 5528 5528 5525 5520 5518 5518 5515 5513 5511 5508 5505 5503 5500 5497 5494 5491 5488 5485 5482 5479 5477 5475 5472 5470 5468 5466 5464 5462 5460 5458 5457 5454 5452 5449 5446 5443 5439 5436 5433 5430 5427 5424 5421 5418 5414 5411 5408 5405 5402 5399 5396 5392 5389 5386 5384
5555 5554 5553 5550 5550 5552 5548 5542 5540 5541 5547 5553 5552 5550 5550 5546 5542 5539 5536 5538 5545 5543 5536 5534 5533 5531 5529 5528 5526 5525 5523 5519 5517 5514 5509 5507 5506 5504 5501 5499 5497 5494 5491 5489 5486 5484 5481 5478 5475 5473 5470 5468 5466 5464 5462 5460 5458 5456 5454 5452 5451 5449 5447 5444 5441 5438 5434 5431 5427 5424 5421 5418 5415 5411 5407 5404 5401 5398 5395 5391 5388 5386 5382 5379 5375 5373
5548 5546 5544 5544 5545 5545 5540 5535 5532 5534 5542 5545 5540 5539 5539 5534 5530 5532 5533 5532 5530 5528 5527 5526 5523 5521 5520 5517 5515 5515 5513 5510 5507 5503 5499 5497 5495 5492 5490 5488 5486 5484 5482 5479 5476 5474 5471 5469 5466 5464 5462 5459 5457 5456 5454 5452 5451 5449 5447 5445 5443 5442 5439 5436 5433 5429 5426 5422 5419 5416 5412 5409 5405 5401 5398 5394 5391 5389 5385 5381 5378 5375 5372 5368 5365 5363
5542 5539 5537 5537 5538 5536 5533 5528 5522 5526 5537 5538 5529 5526 5527 5524 5521 5524 5526 5522 5518 5518 5519 5517 5514 5512 5510 5507 5505 5505 5503 5500 5496 5492 5490 5487 5485 5483 5480 5478 5477 5475 5473 5470 5467 5465 5463 5461 5458 5456 5454 5451 5449 5448 5446 5445 5443 5441 5439 5437 5436 5434 5431 5428 5424 5421 5417 5414 5410 5407 5403 5400 5396 5392 5388 5384 5381 5379 5376 5371 5368 5364 5361 5358 5355 5353
5534 5532 5531 5532 5531 5526 5524 5520 5515 5518 5527 5527 5519 5516 5516 5513 5513 5514 5513 5510 5509 5509 5508 5506 5505 5503 5499 5496 5495 5494 5492 5491 5487 5483 5480 5477 5475 5474 5472 5470 5469 5466 5464 5461 5459 5457 5455 5452 5450 5448 5445 5444 5442 5440 5439 5437 5436 5434 5431 5429 5428 5425 5423 5419 5416 5412 5408 5405 5401 5398 5394 5390 5386 5382 5379 5375 5372 5369 5366 5362 5358 5355 5351 5348 5346 5345
5525 5526 5527 5526 5523 5516 5513 5512 5510 5512 5516 5513 5510 5510 5507 5503 5504 5504 5500 5498 5498 5498 5497 5496 5496 5493 5489 5487 5485 5483 5482 5481 5477 5474 5471 5467 5466 5465 5464 5463 5461 5458 5456 5454 5451 5449 5447 5444 5442 5440 5438 5436 5434 5433 5431 5430 5428 5426 5424 5421 5419 5417 5414 5410 5407 5403 5399 5396 5392 5389 5385 5381 5377 5373 5369 5365 5362 5360 5357 5353 5350 5347 5343 5340 5338 5337
5518 5521 5521 5518 5512 5507 5504 5504 5503 5505 5506 5502 5499 5499 5497 5495 5495 5492 5488 5488 5488 5487 5486 5485 5483 5482 5479 5476 5474 5473 5472 5470 5467 5465 5462 5459 5458 5457 5455 5454 5452 5450 5449 5446 5444 5442 5439 5437 5435 5433 5431 5429 5427 5425 5424 5422 5420 5418 5415 5413 5411 5408 5405 5401 5398 5394 5390 5386 5383 5379 5376 5372 5368 5364 5360 5356 5353 5351 5347 5344 5342 5339 5336 5333 5331 5330
5512 5513 5511 5507 5504 5499 5496 5496 5496 5497 5497 5492 5489 5489 5487 5486 5485 5482 5478 5478 5478 5476 5474 5472 5471 5471 5468 5465 5463 5462 5461 5459 5457 5455 5453 5451 5450 5449 5447 5446 5444 5443 5441 5439 5436 5434 5432 5429 5427 5425 5423 5422 5420 5418 5416 5413 5411 5409 5407 5404 5402 5399 5395 5392 5388 5385 5381 5377 5373 5370 5366 5363 5359 5355 5351 5348 5344 5342 5338 5335 5334 5332 5329 5327 5325 5323
5506 5505 5500 5497 5495 5491 5487 5489 5490 5489 5486 5482 5479 5477 5476 5476 5476 5473 5470 5468 5467 5465 5463 5462 5460 5459 5457 5455 5453 5452 5451 5450 5448 5446 5444 5442 5441 5441 5440 5438 5437 5436 5433 5431 5429 5426 5424 5422 5420 5418 5416 5414 5412 5410 5407 5405 5402 5400 5398 5395 5393 5389 5386 5382 5379 5375 5372 5368 5364 5361 5357 5354 5350 5347 5343 5340 5337 5334 5331 5328 5327 5325 5323 5321 5319 5317
5498 5496 5492 5488 5485 5481 5479 5482 5483 5478 5475 5473 5469 5466 5466 5466 5466 5463 5460 5459 5457 5456 5454 5452 5451 5449 5448 5447 5445 5443 5442 5442 5440 5438 5436 5434 5433 5433 5432 5431 5430 5428 5426 5424 5421 5419 5417 5414 5412 5410 5408 5405 5404 5402 5399 5396 5393 5391 5389 5386 5383 5380 5377 5373 5370 5366 5363 5359 5356 5352 5349 5345 5342 5339 5336 5333 5330 5328 5325 5322 5320 5319 5317 5314 5312 5311
5488 5487 5486 5482 5476 5473 5473 5475 5474 5467 5463 5463 5462 5459 5459 5458 5455 5452 5450 5449 5448 5447 5446 5445 5443 5441 5440 5439 5438 5435 5434 5434 5433 5431 5429 5428 5426 5425 5424 5423 5422 5420 5419 5417 5414 5412 5409 5407 5405 5403 5400 5398 5395 5393 5390 5387 5384 5382 5380 5377 5373 5370 5367 5364 5361 5357 5354 5350 5347 5344 5341 5337 5334 5331 5329 5326 5324 5321 5319 5316 5315 5314 5313 5309 5306 5305
5480 5481 5480 5471 5464 5465 5466 5466 5462 5455 5451 5454 5456 5455 5453 5450 5446 5443 5442 5441 5440 5439 5437 5436 5435 5435 5434 5433 5431 5428 5427 5427 5426 5424 5422 5421 5420 5418 5417 5416 5414 5412 5411 5409 5407 5404 5402 5400 5398 5396 5393 5390 5388 5385 5382 5378 5376 5373 5371 5368 5364 5361 5358 5355 5353 5349 5345 5342 5339 5336 5333 5330 5326 5323 5321 5319 5318 5316 5315 5312 5308 5307 5306 5305 5302 5299
5473 5475 5471 5461 5455 5457 5457 5455 5450 5444 5441 5445 5449 5449 5447 5443 5439 5436 5434 5434 5433 5431 5429 5428 5427 5428 5427 5425 5423 5421 5420 5420 5419 5417 5416 5415 5413 5411 5410 5408 5406 5404 5402 5400 5399 5397 5395 5393 5390 5388 5385 5382 5380 5377 5374 5370 5368 5365 5362 5359 5356 5353 5350 5347 5344 5341 5338 5334 5331 5328 5325 5322 5319 5317 5314 5312 5311 5311 5310 5309 5305 5301 5299 5298 5297 5294